YD2CLX-16 Weather Reports


time (UTC)temp
C
wind
direction
speed
KPH
gust
KPH
rain 1hr
cm
rain 24hr
cm
rain mn
cm
humidity
%
barometer
mb
20260502220054 25 200 14.5 0.0 0.00 0.00 0.00 100 1009.0
20260502214554 25 200 14.5 0.0 0.00 0.00 0.00 100 1009.0
20260502213054 25 200 14.5 0.0 0.00 0.00 0.00 100 1009.0
20260502211554 25 200 14.5 0.0 0.00 0.00 0.00 100 1009.0
20260502210054 25 200 14.5 0.0 0.00 0.00 0.00 100 1009.0
20260502204554 25 200 14.5 0.0 0.00 0.00 0.00 100 1009.0
20260502203054 25 200 14.5 0.0 0.00 0.00 0.00 100 1009.0
20260502201554 25 200 14.5 0.0 0.00 0.00 0.00 100 1009.0
20260502200055 25 200 14.5 0.0 0.00 0.00 0.00 100 1009.0
20260502194554 25 200 14.5 0.0 0.00 0.00 0.00 100 1009.0
20260502193055 25 200 14.5 0.0 0.00 0.00 0.00 100 1009.0
20260502191554 25 200 14.5 0.0 0.00 0.00 0.00 100 1009.0
20260502190055 25 200 14.5 0.0 0.00 0.00 0.00 100 1009.0
20260502184554 25 200 14.5 0.0 0.00 0.00 0.00 100 1009.0
20260502183055 25 200 14.5 0.0 0.00 0.00 0.00 100 1009.0
20260502181554 25 200 14.5 0.0 0.00 0.00 0.00 100 1009.0
20260502163054 25 200 14.5 0.0 0.00 0.00 0.00 100 1010.0
20260502161554 25 200 14.5 0.0 0.00 0.00 0.00 100 1010.0
20260502151554 25 200 14.5 0.0 0.00 0.00 0.00 100 1010.0
20260502123054 30 300 14.5 0.0 0.03 0.00 0.00 74 1010.0
20260502121554 30 300 14.5 0.0 0.00 0.00 0.00 74 1009.0
20260502114554 28 310 14.5 0.0 0.00 0.00 0.00 79 1009.0
20260502113054 27 320 12.9 0.0 0.00 0.00 0.00 84 1009.0
20260502111554 27 320 12.9 0.0 0.00 0.00 0.00 84 1008.0
20260502110054 27 320 12.9 0.0 0.00 0.00 0.00 84 1008.0
20260502104554 28 320 12.9 0.0 0.00 0.00 0.00 84 1008.0
20260502103055 29 330 16.1 0.0 0.00 0.00 0.00 70 1008.0
20260502101554 29 330 16.1 0.0 0.00 0.00 0.00 70 1007.0
20260502070056 31 350 16.1 0.0 0.00 0.00 0.00 69 1007.0
20260502064555 31 350 16.1 0.0 0.00 0.00 0.00 69 1007.0
20260502063055 31 350 16.1 0.0 0.00 0.00 0.00 69 1007.0
20260502061554 31 350 16.1 0.0 0.00 0.00 0.00 69 1008.0
20260502060058 31 110 16.1 0.0 0.00 0.00 0.00 69 1008.0
20260502054555 31 110 16.1 0.0 0.00 0.00 0.00 69 1008.0
20260502053055 31 110 16.1 0.0 0.00 0.00 0.00 69 1008.0
20260502051555 31 110 16.1 0.0 0.00 0.00 0.00 70 1009.0
20260502050055 31 110 16.1 0.0 0.00 0.00 0.00 70 1008.0
20260502044554 30 110 16.1 0.0 0.00 0.00 0.00 70 1009.0
20260502043055 30 110 16.1 0.0 0.00 0.00 0.00 70 1009.0
20260502041554 30 110 16.1 0.0 0.00 0.00 0.00 70 1009.0
20260502040056 30 110 16.1 0.0 0.00 0.00 0.00 70 1009.0
20260502034554 30 110 16.1 0.0 0.00 0.00 0.00 71 1009.0
20260502033054 30 100 16.1 0.0 0.00 0.00 0.00 71 1010.0
20260502031554 30 100 16.1 0.0 0.00 0.00 0.00 71 1010.0
20260502030055 29 100 16.1 0.0 0.00 0.00 0.00 72 1010.0
20260502024554 28 100 16.1 0.0 0.00 0.00 0.00 73 1010.0
20260502023054 28 110 14.5 0.0 0.00 0.00 0.00 75 1010.0
20260502021554 28 110 14.5 0.0 0.00 0.00 0.00 77 1010.0
20260502020055 28 110 12.9 0.0 0.00 0.00 0.00 77 1010.0
20260502014554 28 110 12.9 0.0 0.00 0.00 0.00 79 1010.0
20260502013054 28 110 12.9 0.0 0.00 0.00 0.00 81 1010.0
20260502011554 27 110 12.9 0.0 0.00 0.00 0.00 84 1010.0
20260502010055 27 110 12.9 0.0 0.00 0.00 0.00 84 1010.0
20260502004554 27 110 12.9 0.0 0.00 0.00 0.00 84 1010.0
20260502003054 27 110 12.9 0.0 0.00 0.00 0.00 86 1010.0
20260502001554 26 110 12.9 0.0 0.00 0.00 0.00 89 1010.0
20260502000056 26 100 12.9 0.0 0.00 0.00 0.00 89 1010.0
20260501234554 26 100 12.9 0.0 0.00 0.00 0.00 90 1010.0
20260501233054 26 130 8.0 0.0 0.00 0.00 0.00 90 1010.0
20260501231554 25 130 8.0 0.0 0.00 0.00 0.00 91 1009.0
20260501230054 25 130 8.0 0.0 0.00 0.00 0.00 91 1009.0